Starlink 2655

operational
NORAD ID: 48449 Int'l Des: 2021-040 Owner: SPXS Country: US Constellation: starlink
LEOCIRCULARSTARLINK_TYPE

Starlink 2655について

説明を読み込み中...

リアルタイム位置

3D地球を読み込み中...

次回通過

高度履歴

Altitude vs Time

uPlot chart will show altitude changes over time

軌道要素

1 48449U 21040X 26036.20832579 .00007457 00000-0 51897-3 0 9995
2 48449 53.0558 327.4315 0001520 103.0752 257.0407 15.06402561261732
Epoch: Feb 5, 2026 • Age: 8 hours

現在のステータス

高度 563.1 km
速度 7.58 km/s
衛星直下点 -44.27°S, 46.89°W
打ち上げ日 May 9, 2021
運用期間 4.7 years
タイプ internet

技術仕様

分類 Payload
質量 260.00 kg
乾燥質量 248.00 kg
総質量 260.00 kg
長さ 0.20 m
直径 2.80 m
スパン 9.00 m
形状 Box + pan
製造者 SPXS
バスタイプ Starlink
フェーズステータス In Orbit
所有者/国 SPXS/US

大規模コンステレーション

Loading constellations...